Regional Weather Roundup
Issued by NWS Wakefield, VA

Home | Current Version | Previous Version | Graphics & Text | Print | Product List | Glossary On
Versions: 1 2 3 4 5 6 7 8 9 10 11 12 13 14 15 16 17 18 19 20 21 22 23 24 25 26 27 28 29 30 31 32 33 34 35 36 37 38 39 40 41 42 43 44 45 46 47 48 49 50
000
ASUS41 KAKQ 232310
RWRAKQ

REGIONAL WEATHER ROUNDUP
NATIONAL WEATHER SERVICE WAKEFIELD VA
600 PM EST SUN NOV 23 2014

Note: "fair" indicates few or no clouds below 12,000 feet with no
significant weather and/or obstructions to visibility. * = Denotes
station may not report precipitation (e.g., rain,snow,etc.),
thunder or fog.

VAZ042-051-052>054-056-240000-
NORTHERN VIRGINIA

CITY           SKY/WX    TMP DP  RH WIND       PRES   REMARKS
WASH NATIONAL  CLOUDY    55  39  54 CALM      30.07F
DULLES         MOCLDY    53  38  56 SE5       30.04F
FORT BELVOIR   CLOUDY    51  38  60 SE5       30.05F
QUANTICO       LGT RAIN  51  44  77 CALM      30.06F
FREDERICKSBRG* DRIZZLE   55  48  76 SE6       30.04F
STAFFORD*      DRIZZLE   55  45  70 CALM      30.08F
WARRENTON      CLOUDY    57  50  77 CALM      30.03F
CULPEPER*      LGT RAIN  55  46  71 CALM      30.04S
MANASSAS*      NOT AVBL
LEESBURG*      MOCLDY    48  34  57 MISG      30.04F
WINCHESTER     MOCLDY    54  32  43 SE9       29.99F
FRONT ROYAL*   CLOUDY    55  41  58 S12G20    29.98F
LURAY*         CLOUDY    57  46  67 S7        29.98F
$$

VAZ048-049-060>072-079>083-240000-
CENTRAL AND SOUTH CENTRAL VIRGINIA

CITY           SKY/WX    TMP DP  RH WIND       PRES   REMARKS
RICHMOND       LGT RAIN  53  45  74 E5        30.05F
CHESTERFIELD*  CLOUDY    52  36  54 CALM      30.06F
PETERSBURG*    CLOUDY    51  46  81 NE3       30.05F
HANOVER        CLOUDY    51  48  89 CALM      30.06F
TAPPAHANNOCK*  LGT RAIN  53  44  71 E5        30.07F
QUINTON*       CLOUDY    50  48  92 E3        30.06F
CHARLOTTSVILLE LGT RAIN  51  42  71 SE7       30.03S
GORDONSVILLE*  CLOUDY    51  45  78 CALM      30.02F
ORANGE*        CLOUDY    54  45  71 SE3       30.05S
LOUISA*        LGT RAIN  52  46  82 CALM      30.02F
BUMPASS*       CLOUDY    52  47  83 S6        30.04F
FARMVILLE*     CLOUDY    50  43  77 CALM      30.01F
CREWE*         CLOUDY    49  46  88 CALM      30.03F
FORT PICKETT*  CLOUDY    51  46  82 E5        30.03F
LUNENBURG*     CLOUDY    51  48  89 CALM      30.02F
CHASE CITY*    CLOUDY    53  51  93 E3        29.99F
CLARKSVILLE*   CLOUDY    52  50  93 E8        29.98F
SOUTH HILL*    CLOUDY    51  47  87 E3        30.06F
LAWRENCEVILLE* CLOUDY    53  48  84 E3        30.03F
$$

VAZ088>098-240000-
SOUTHEAST VIRGINIA

CITY           SKY/WX    TMP DP  RH WIND       PRES   REMARKS
NORFOLK        LGT RAIN  60  54  80 SE5       30.07F
VIRGINIA BEACH LGT RAIN  60  56  86 SE7       30.07F
NORFOLK NAVAL  LGT RAIN  61  54  77 SE7       30.08F
WEST POINT*    CLOUDY    54  47  78 E6        30.08F
SALUDA*        MOCLDY    49  46  88 SE5       30.08F
NEWPORT NEWS   LGT RAIN  54  49  83 E6        30.07F
LANGLEY AFB    CLOUDY    54  54 100 E8        30.08F
FORT EUSTIS    DRIZZLE   54  50  87 E5        30.05F
WILLIAMSBURG*  CLOUDY    54  52  94 SE5       30.07F
HR EXEC AP*    CLOUDY    57  54  88 E6        30.08F
FRANKLIN*      CLOUDY    55  55 100 E3        30.05F
WAKEFIELD      CLOUDY    53  49  86 CALM      30.05F
$$

VAZ020-022-025-037-045-240000-
WEST CENTRAL AND SOUTHWEST VIRGINIA

CITY           SKY/WX    TMP DP  RH WIND       PRES   REMARKS
STAUNTON*      CLOUDY    54  45  72 S7        30.00F
WAYNESBORO*    CLOUDY    46  41  84 SE12      29.99F
HOT SPRINGS VA RAIN      43  43 100 SE14G22   29.92F VSB<1/4
LYNCHBURG      CLOUDY    45  45 100 NE5       30.01F
DANVILLE       LGT RAIN  46  43  89 E7        29.97F
SOUTH BOSTON*  CLOUDY    46  44  94 CALM      29.98F
MARTINSVILLE   RAIN      45  45 100 N5        29.97F
ROANOKE        LGT RAIN  40  39  97 CALM      30.00F FOG
BLACKSBURG     DRIZZLE   45  45 100 E7        29.95F
DUBLIN*        DRIZZLE   49  49 100 NE7       29.93F
MARION*        LGT RAIN  51  49  91 E16G24    29.86F
HILLSVILLE*    HVY RAIN  49  48  97 SE10G21   29.88F
RICHLANDS*     RAIN      55  50  85 SE13G30   29.76F
WISE*          RAIN      52  52 100 S8G20     29.72F
ABINGDON*      LGT RAIN  56  52  87 SE15G21   29.76F
$$

MDZ021>025-VAZ099-100-240000-
SOUTHERN MARYLAND AND THE DELMARVA PENINSULA

CITY           SKY/WX    TMP DP  RH WIND       PRES   REMARKS
PATUXENT RIVER CLOUDY    51  44  77 SE7       30.08F
BAY BRIDGE APT   N/A     50  43  76 SE6       30.09F
LEONARDTOWN    CLOUDY    52  43  71 E5        30.08F
DOVER          CLOUDY    46  46 100 E6        30.10F
GEORGETOWN     CLOUDY    52  45  77 SE6       30.13F
EASTON         NOT AVBL
CAMBRIDGE      CLOUDY    52  43  71 SE5       30.09F
SALISBURY      CLOUDY    53  47  79 SE6       30.12S
OCEAN CITY     CLOUDY    51  48  89 CALM      30.13F
WALLOPS ISLAND CLOUDY    50  47  89 E5        30.12F
ACCOMACK*      LGT RAIN  54  50  87 SE5       30.10F
$$

NCZ012>017-030>032-240000-
NORTH CENTRAL AND EASTERN NORTH CAROLINA

CITY           SKY/WX    TMP DP  RH WIND       PRES   REMARKS
ROANOKE RAPIDS DRIZZLE   54  54 100 CALM      30.02F
RALEIGH        LGT RAIN  56  53  90 E10       29.96F FOG
ELIZABETH CITY LGT RAIN  61  55  81 SE9       30.06F
AHOSKIE*       LGT RAIN  55  54  95 NE3       30.03F
EDENTON*       CLOUDY    59  58  95 SE6       30.04F
CURRITUCK*     LGT RAIN  61  56  83 SE5       30.07F
KILL DEVIL HLS DRIZZLE   62  59  88 SE9G20    30.06F
MANTEO         DRIZZLE   62  57  84 SE13G18   30.07F
CAPE HATTERAS  CLOUDY    64  58  80 SE18G26   30.05F
TARBORO*       CLOUDY    58  56  94 CALM      30.02F
GOLDSBORO      CLOUDY    61  61 100 E2        29.96F
WASHINGTON     CLOUDY    60  58  94 E5        30.01F
GREENVILLE     CLOUDY    61  59  94 SE7       30.02F
NEW BERN       LGT RAIN  64  59  83 SE8       30.01F
WILMINGTON     MOCLDY    66  62  87 SE13      29.95F
$$

VAZ048-240000-
ELSEWHERE

CITY           SKY/WX    TMP DP  RH WIND       PRES   REMARKS
HARRISBURG PA  CLOUDY    44  28  53 SE6       30.06S
BALTIMORE      CLOUDY    46  36  68 E7        30.07F
ANNAPOLIS      CLOUDY    47  43  86 SE7       30.08F
ANDREWS AFB    CLOUDY    54  44  69 SE7       30.06F
PHILADELPHIA   CLOUDY    51  30  44 CALM      30.12F
WILDWOOD NJ*   CLOUDY    50  45  81 SE8       30.11F
HENDERSON NC   DRIZZLE   53  50  92 E6        29.98F
GREENSBORO     LGT RAIN  53  52  96 E10       29.90F FOG
ROCKY MOUNT    CLOUDY    57  55  93 NE5       30.00F FOG
$$

VAZ100-240000-
MARINE

STATION/POSITION TIME  TEMP    WIND        PRES    WAVE   SWELL
                       AIR SEA DIR/SP/G            HT/PER HT/PER
                 (UTC) (F)     (DEG/KT/KT) (MB)    (FT/S) (FT/S)
CAPE MAY NJ      2300   51 46  120/  6/  8 1019.9F
LEWES DE         2300   52 46  160/  7/  9 1019.9F
15NM E FENWICK I 2300   56 53              1020.4F   1/ 4
OCEAN-CITY-INLET 2300   53 46  120/  5/  7 1019.9F
WACHAPREAGUE VA  2300   52 42   20/  3/  4 1019.4F
THOMAS POINT MD  2300   50 47  150/ 11/ 12 1019.7F
GOOSES REEF MD   2300   49     160/  8/ 10 1019.4F
COVE POINT MD    2300   50     170/  9/ 10 1018.7F
SOLOMONS ISLAND  2300      49                N/A
BISHOPS HEAD MD  2300   48 42  100/  6/  6 1018.7F
PINEY POINT MD   2300          130/ 10/ 11   N/A
POTOMAC MD       2300   49     140/  4/  6 1018.3F
CAMBRIDGE MD     2300   49 42   90/  2/  5 1018.9F
LEWISETTA VA     2300   49 44  110/  8/  8 1018.1F
RAPPAHANNOCK LGT 2300          110/ 13/ 13 1019.2F
STINGRAY PT      2300   49      80/  4/  6 1019.5F
YORK RVR RNG VA  2300   52     130/ 13/ 13 1018.0F
YORKTOWN VA      2300   51 50   90/  5/  6 1018.1F
JAMESTOWN VA     2300   52     110/  6/  8   N/A
DOMINION TERM VA 2300   56      70/  6/  7 1018.3F
KIPTOPEKE VA     2300      53  120/ 10/ 12   N/A
CHES BAY BRIDGE  2300   54 51   80/  8/ 11 1018.0F
CAPE HENRY VA    2300   57     130/  8/ 11 1017.3F
CHESAPEAKE LGHT  2200   59     130/ 18/ 18 1019.9F
WILLOUBY STN VA  2300   54      70/  7/  8 1016.9F
S CRANEY ISL VA  2300          110/  3/  9 1017.8F
CAPE HENRY BUOY  2300      55                N/A     2/ 9
1ST LANDING BUOY 2300   53     100/  6/  8 1018.3F
CAPE CHARLES BUO 2300      54                N/A     1/ 9   2/ 9
64NM E OF VA BCH 2300   66 64  160/ 12/ 14 1019.6F   2/ 5   2/ 9
DUCK PIER NC     2300   59 55  140/ 11/ 12 1017.3F
44100 DUCK FRF   2300      57                N/A     2/ 9
44056 DUCK FRF   2300      57                N/A     1/ 9
OREGON INLET NC  2300   61 51  130/  9/ 13 1017.9F
HATTERAS NC      2300   67 57  140/ 17/ 21 1017.7F
DIAMOND SHLS NC  2300   70     140/ 25/ 29 1017.1F   6/ 6   2/ 9


USA.gov is the U.S. government's official web portal to all federal, state and local government web resources and services.